Location: Shepherdstown, WV
(39.4326°N, 77.8042°W)
Time: 14:36:46
(UTC-04:00)

Tiros 1 despin weight - Pass Details

Date: 25 July 2021
Orbit: 593 x 641 km, 48.2° (Epoch: 22 September)

Event Time Altitude Azimuth Distance (km) Brightness Sun altitude
Rises 23:20:17 0° 297° (WNW) 2,918 ? -25.1°
Reaches altitude 10° 23:22:42 10° 291° (WNW) 2,000 ? -25.3°
Enters shadow 23:26:04 37° 253° (WSW) 970 ? -25.6°
